Stations météo

Publicité
Cherbourg, France (7024): Température de l'air & dewpoint: 17.09.2020 10:00:00 - 23.09.2020 10:00:00 (CEST)Cherbourg, France (7024): Température de l'air 5cm: 17.09.2020 10:00:00 - 23.09.2020 10:00:00 (CEST)Cherbourg, France (7024): Température de l'air -20cm & Température de l'air -100cm: 17.09.2020 10:00:00 - 23.09.2020 10:00:00 (CEST)Cherbourg, France (7024): Vitesse du vent & gusts: 17.09.2020 10:00:00 - 23.09.2020 10:00:00 (CEST)Cherbourg, France (7024): Direction du vent: 17.09.2020 10:00:00 - 23.09.2020 10:00:00 (CEST)Cherbourg, France (7024): reduced air pressure: 17.09.2020 10:00:00 - 23.09.2020 10:00:00 (CEST)Cherbourg, France (7024): visibility: 17.09.2020 10:00:00 - 23.09.2020 10:00:00 (CEST)Cherbourg, France (7024): Ensoleillement: 17.09.2020 10:00:00 - 23.09.2020 10:00:00 (CEST)Cherbourg, France (7024): Quantités de précipitations: 17.09.2020 10:00:00 - 23.09.2020 10:00:00 (CEST)
Date & Time tt [°C] td [°C] tt 5cm [°C] tt -20cm [°C] tt -100cm [°C] ff [km/h] ff [knt] fx [km/h] fx [knt] dd ppp [hPa] vv [km] sd [min] rr [mm]
23.09.2020 10:00:00 15,3 14,2 15,0 16,5 16,4 19 10 37 20 SSW 1003,9 17 0 0,0
23.09.2020 09:00:00 15,0 14,2 14,5 16,5 16,4 17 9 27 14 SW 1004,2 15 0 0,0
23.09.2020 08:00:00 15,0 14,2 14,3 16,5 16,4 19 10 32 18 WSW 1004,1 14 0 0,0
23.09.2020 07:00:00 15,2 14,6 14,7 16,5 16,4 17 9 26 14 SW 1004,1 15 0 0,0
23.09.2020 06:00:00 15,3 14,7 14,8 16,5 16,4 18 10 29 16 WSW 1004,4 19 0 0,0
23.09.2020 05:00:00 15,2 14,6 14,7 16,5 16,4 19 10 30 16 SW 1004,6 38 0 0,0
23.09.2020 04:00:00 15,9 15,3 15,5 16,5 16,4 19 11 31 17 WSW 1004,9 4,8 0 1,2
23.09.2020 03:00:00 16,1 15,3 15,3 16,6 16,4 19 10 34 18 SSW 1005,3 18 0 0,0
23.09.2020 02:00:00 16,0 15,5 14,9 16,6 16,4 18 10 29 16 SSW 1005,8 12 0 0,0
23.09.2020 01:00:00 15,4 15,1 14,3 16,6 16,4 14 8 21 12 S 1006,4 5 0 0,0
23.09.2020 00:00:00 14,8 14,3 14,2 16,6 16,4 10 6 15 8 S 1007,0 3,7 0 0,0
22.09.2020 23:00:00 15,2 14,7 13,9 16,6 16,4 8 5 13 7 S 1007,7 4,0 0 0,0
22.09.2020 22:00:00 14,6 14,1 11,6 16,7 16,4 9 5 13 7 S 1008,1 5 0 0,0
22.09.2020 21:00:00 14,0 13,2 12,2 16,6 16,4 8 5 12 6 S 1008,7 5 0 0,0
22.09.2020 20:00:00 16,0 14,4 15,1 16,6 16,4 10 6 21 11 WSW 1008,7 12 16 0,0
22.09.2020 19:00:00 17,5 14,9 17,3 16,6 16,4 13 7 27 14 WSW 1008,7 20 12 0,0
22.09.2020 18:00:00 17,5 14,9 17,9 16,6 16,4 20 11 31 17 WSW 1009,1 22 12 0,0
22.09.2020 17:00:00 18,5 15,2 19,4 16,5 16,4 15 8 26 14 SW 1009,6 19 9 0,2
22.09.2020 16:00:00 18,6 15,8 19,2 16,5 16,4 17 9 27 14 SW 1010,2 16 1 0,0
22.09.2020 15:00:00 18,3 16,1 20,2 16,4 16,4 14 7 24 13 SW 1010,9 17 7 0,0
22.09.2020 14:00:00 18,2 16,4 19,9 16,4 16,4 16 9 23 12 SW 1011,4 14 0 0,0
22.09.2020 13:00:00 17,8 16,5 17,9 16,4 16,4 12 7 17 9 WSW 1011,9 16 1 0,0
22.09.2020 12:00:00 16,3 16,1 16,8 16,4 16,4 11 6 16 9 W 1012,5 2,7 0 0,0
22.09.2020 11:00:00 16,0 15,8 15,8 16,4 16,4 9 5 16 9 W 1012,9 0,2 0 0,0
22.09.2020 10:00:00 15,5 15,5 15,0 16,5 16,4 12 6 21 11 WNW 1013,1 0,2 0 0,0
22.09.2020 09:00:00 14,7 14,7 9,1 16,5 16,4 13 7 19 10 WNW 1013,1 0,1 0 0,0
22.09.2020 08:00:00 11,8 11,2 5,7 16,6 16,4 8 4 10 6 WSW 1013,0 1,1 0 0,0
22.09.2020 07:00:00 11,5 9,4 8,0 16,7 16,4 9 5 13 7 S 1013,2 13 0 0,0
22.09.2020 06:00:00 11,5 8,7 5,6 16,8 16,4 10 6 14 8 SSW 1013,6 14 0 0,0
22.09.2020 05:00:00 11,2 7,5 5,7 16,9 16,4 9 5 11 6 S 1014,0 15 0 0,0
22.09.2020 04:00:00 10,7 9,9 5,8 16,9 16,4 9 5 10 5 S 1014,5 11 0 0,0
22.09.2020 03:00:00 10,6 9,8 6,5 17,0 16,4 6 3 6 4 S 1015,0 4,1 0 0,0
22.09.2020 02:00:00 13,6 13,6 6,6 17,1 16,4 4 2 8 5 WSW 1015,5 0,1 0 0,0
22.09.2020 01:00:00 12,5 12,3 8,4 17,2 16,4 7 4 8 4 S 1016,1 0,1 0 0,0
22.09.2020 00:00:00 12,8 12,6 9,4 17,2 16,4 5 3 7 4 SSW 1016,4 0,1 0 0,2
21.09.2020 23:00:00 13,2 13,0 7,9 17,3 16,4 0 0 7 4 N 1016,7 0,1 0 0,0
21.09.2020 22:00:00 13,9 13,6 8,5 17,3 16,4 3 1 8 4 E 1016,5 0,1 0 0,0
21.09.2020 21:00:00 14,6 14,1 9,0 17,3 16,4 3 1 9 5 ESE 1016,4 0,4 0 0,0
21.09.2020 20:00:00 16,0 14,9 14,3 17,3 16,4 6 3 13 7 E 1016,1 4,1 29 0,0
21.09.2020 19:00:00 18,0 15,4 21,7 17,2 16,4 8 4 14 8 ENE 1016,1 8 60 0,0
21.09.2020 18:00:00 19,2 15,7 26,5 17,1 16,4 11 6 17 9 ENE 1016,3 10 60 0,0
21.09.2020 17:00:00 20,5 15,1 30,2 17,1 16,4 9 5 16 9 ENE 1016,5 17 60 0,0
21.09.2020 16:00:00 21,1 14,7 30,6 16,9 16,4 9 5 18 10 E 1016,9 19 60 0,0
21.09.2020 15:00:00 20,6 14,5 28,4 16,8 16,4 13 7 23 12 E 1017,1 15 60 0,0
21.09.2020 14:00:00 20,1 15,3 28,5 16,8 16,4 13 7 23 13 E 1017,4 16 60 0,0
21.09.2020 13:00:00 19,7 15,1 27,3 16,7 16,4 14 8 23 12 E 1017,5 15 60 0,0
21.09.2020 12:00:00 18,9 15,6 20,4 16,7 16,4 16 8 22 12 E 1017,5 14 41 0,0
21.09.2020 11:00:00 17,6 15,9 18,2 16,8 16,4 10 6 20 11 ENE 1017,7 9 6 0,0
21.09.2020 10:00:00 16,6 15,6 16,0 16,8 16,4 14 7 22 12 E 1017,4 7 2 0,0
21.09.2020 09:00:00 16,0 15,7 14,2 16,8 16,4 13 7 19 10 ENE 1017,3 5 0 0,0
21.09.2020 08:00:00 15,4 14,9 13,9 16,8 16,4 12 7 20 11 E 1016,8 4,3 0 0,0
21.09.2020 07:00:00 15,4 14,9 14,2 16,8 16,4 15 8 21 11 ENE 1016,7 5 0 0,0
21.09.2020 06:00:00 15,5 14,9 14,4 16,9 16,4 14 8 22 12 ENE 1016,9 9 0 0,0
21.09.2020 05:00:00 15,6 14,6 14,0 16,9 16,4 14 7 23 12 ENE 1016,8 13 0 0,0
21.09.2020 04:00:00 15,5 14,2 13,9 17,0 16,4 14 7 23 12 NE 1017,3 16 0 0,0
21.09.2020 03:00:00 16,0 14,0 13,8 17,0 16,4 14 8 24 13 E 1017,2 18 0 0,0
21.09.2020 02:00:00 15,5 13,5 13,4 17,0 16,4 14 8 20 11 ENE 1017,6 19 0 0,0
21.09.2020 01:00:00 16,1 12,8 14,5 17,1 16,4 13 7 24 13 E 1017,4 35 0 0,0
21.09.2020 00:00:00 16,3 13,0 14,4 17,1 16,4 16 9 27 15 E 1017,6 38 0 0,0
20.09.2020 23:00:00 16,9 13,2 15,1 17,1 16,4 18 10 31 17 ENE 1017,8 36 0 0,0
20.09.2020 22:00:00 17,3 13,8 15,1 17,1 16,4 18 10 31 17 ENE 1017,6 37 0 0,0
20.09.2020 21:00:00 17,1 13,0 15,0 17,1 16,4 17 9 26 14 ENE 1017,2 39 0 0,0
20.09.2020 20:00:00 17,2 15,0 16,0 17,1 16,4 13 7 25 14 ENE 1016,7 16 32 0,0
20.09.2020 19:00:00 18,3 15,2 21,1 17,1 16,4 16 9 30 16 ENE 1015,9 18 60 0,0
20.09.2020 18:00:00 19,0 15,7 24,6 17,0 16,4 20 11 33 18 ENE 1015,8 17 60 0,0
20.09.2020 17:00:00 19,7 16,2 23,5 16,9 16,4 23 12 36 19 E 1015,8 16 45 0,0
20.09.2020 16:00:00 19,0 15,3 23,7 16,9 16,4 21 11 35 19 NE 1016,1 19 10 0,0
20.09.2020 15:00:00 19,0 16,0 24,4 16,8 16,4 23 12 39 21 ENE 1016,2 16 47 0,0
20.09.2020 14:00:00 19,5 16,5 23,3 16,8 16,4 23 13 40 21 NE 1016,4 17 31 0,0
20.09.2020 13:00:00 19,0 16,0 23,4 16,8 16,4 23 12 38 20 ENE 1016,4 14 44 0,0
20.09.2020 12:00:00 18,4 15,8 20,2 16,8 16,4 22 12 37 20 NE 1016,4 16 8 0,0
20.09.2020 11:00:00 17,6 15,2 18,8 16,8 16,4 21 11 34 18 NE 1016,3 14 18 0,0
20.09.2020 10:00:00 17,1 15,4 17,9 16,8 16,4 21 11 35 19 NE 1015,9 14 11 0,0
20.09.2020 09:00:00 16,9 15,2 15,5 16,8 16,4 18 10 34 18 NE 1015,3 13 29 0,0
20.09.2020 08:00:00 16,2 15,1 15,4 16,8 16,4 18 10 31 17 NE 1015,0 14 0 0,0
20.09.2020 07:00:00 16,1 15,1 15,1 16,8 16,4 18 10 29 16 NE 1015,2 12 0 0,0
20.09.2020 06:00:00 16,3 15,2 15,3 16,9 16,4 16 9 26 14 NE 1014,8 12 0 0,0
20.09.2020 05:00:00 16,4 15,1 14,8 16,9 16,4 16 9 29 16 ENE 1014,9 13 0 0,0
20.09.2020 04:00:00 16,3 15,0 15,1 16,9 16,4 18 10 28 15 NE 1014,8 13 0 0,0
20.09.2020 03:00:00 16,1 15,0 14,7 16,9 16,4 16 9 24 13 ENE 1015,0 12 0 0,0
20.09.2020 02:00:00 16,3 15,2 15,0 16,9 16,4 14 7 26 14 NE 1014,8 12 0 0,0
20.09.2020 01:00:00 16,5 15,2 15,1 17,0 16,4 14 8 23 12 NE 1014,9 13 0 0,0
20.09.2020 00:00:00 16,8 15,1 15,5 17,0 16,4 12 7 26 14 ENE 1015,0 14 0 0,0
19.09.2020 23:00:00 16,8 15,3 15,9 17,0 16,4 13 7 26 14 ENE 1014,9 11 0 0,0
19.09.2020 22:00:00 16,9 16,4 16,6 16,9 16,4 18 10 27 14 E 1014,6 3,0 0 0,0
19.09.2020 21:00:00 17,0 16,4 16,6 17,0 16,4 15 8 24 13 ENE 1013,9 6 0 0,0
19.09.2020 20:00:00 17,2 16,6 16,8 16,9 16,4 16 8 26 14 E 1013,9 6 0 0,2
19.09.2020 19:00:00 18,3 16,6 18,4 16,9 16,4 12 7 23 13 E 1013,5 11 8 0,0
19.09.2020 18:00:00 20,6 17,4 19,8 16,8 16,4 16 8 30 16 E 1012,9 10 33 0,0
19.09.2020 17:00:00 18,5 16,3 19,1 16,8 16,4 16 8 33 18 E 1012,8 12 0 0,0
19.09.2020 16:00:00 18,7 15,9 20,7 16,8 16,4 22 12 33 18 E 1012,6 10 0 0,0
19.09.2020 15:00:00 19,2 16,4 20,3 16,7 16,4 21 12 29 16 E 1012,4 11 1 0,0
19.09.2020 14:00:00 18,5 16,1 21,0 16,7 16,4 20 11 33 18 E 1012,5 13 0 0,0
19.09.2020 13:00:00 18,4 15,8 20,4 16,7 16,4 19 10 32 17 E 1012,3 11 4 0,0
19.09.2020 12:00:00 18,4 15,8 18,0 16,7 16,4 21 11 44 24 E 1012,5 13 5 0,0
19.09.2020 11:00:00 17,1 15,6 16,3 16,7 16,4 21 11 39 21 NE 1012,9 12 0 0,0
19.09.2020 10:00:00 16,5 15,5 15,9 16,7 16,4 19 10 29 15 NNE 1012,8 10 0 1,2
19.09.2020 09:00:00 16,7 15,1 16,0 16,7 16,4 13 7 22 12 NE 1013,4 12 0 0,0
19.09.2020 08:00:00 16,6 15,3 15,6 16,7 16,4 15 8 26 14 NE 1013,5 12 0 0,0
19.09.2020 07:00:00 16,4 15,1 14,9 16,7 16,4 16 9 29 16 NE 1013,4 11 0 0,0
19.09.2020 06:00:00 16,3 15,0 14,9 16,7 16,4 15 8 24 13 ENE 1013,8 11 0 0,0
19.09.2020 05:00:00 16,5 15,2 15,3 16,8 16,4 16 9 31 17 E 1014,3 11 0 0,0
19.09.2020 04:00:00 16,7 15,2 15,6 16,8 16,4 18 10 31 17 ENE 1014,6 11 0 0,0
19.09.2020 03:00:00 16,8 15,1 15,6 16,8 16,4 22 12 33 18 ENE 1015,1 11 0 0,0
19.09.2020 02:00:00 16,8 15,0 15,4 16,8 16,4 22 12 32 17 ENE 1015,5 13 0 0,0
19.09.2020 01:00:00 16,6 15,0 15,4 16,8 16,4 22 12 39 21 ENE 1016,0 12 0 0,0
19.09.2020 00:00:00 16,5 14,9 15,3 16,8 16,4 22 12 39 21 ENE 1016,5 12 0 0,0
18.09.2020 23:00:00 16,4 14,8 15,3 16,9 16,4 24 13 43 23 ENE 1016,9 12 0 0,0
18.09.2020 22:00:00 16,3 14,7 14,9 16,9 16,4 27 14 44 24 ENE 1016,8 13 0 0,0
18.09.2020 21:00:00 16,1 13,9 14,8 16,9 16,4 28 15 45 25 E 1016,8 15 0 0,0
18.09.2020 20:00:00 16,4 13,3 15,1 16,9 16,5 26 14 50 27 E 1016,6 18 36 0,0
18.09.2020 19:00:00 17,2 13,5 17,6 16,8 16,4 28 15 56 30 E 1016,3 18 49 0,0
18.09.2020 18:00:00 16,9 13,2 17,7 16,8 16,4 33 18 58 31 ENE 1016,3 18 43 0,0
18.09.2020 17:00:00 17,8 13,7 19,7 16,8 16,5 31 17 59 32 ENE 1016,4 17 33 0,0
18.09.2020 16:00:00 18,0 13,5 21,9 16,7 16,5 34 19 60 32 ENE 1016,9 16 60 0,0
18.09.2020 15:00:00 17,3 13,0 20,4 16,7 16,4 32 18 62 34 ENE 1017,5 17 11 0,0
18.09.2020 14:00:00 17,4 12,9 21,9 16,6 16,5 36 20 54 29 ENE 1017,8 20 43 0,0
18.09.2020 13:00:00 18,3 12,9 24,7 16,6 16,4 32 17 54 29 E 1018,6 25 60 0,0
18.09.2020 12:00:00 18,0 13,9 23,0 16,6 16,4 34 18 52 28 E 1018,7 20 60 0,0
18.09.2020 11:00:00 17,2 13,3 20,5 16,6 16,4 28 15 45 24 E 1019,0 19 60 0,0
18.09.2020 10:00:00 16,7 13,4 15,5 16,6 16,4 26 14 44 24 E 1019,0 18 58 0,0
18.09.2020 09:00:00 15,4 12,5 12,4 16,7 16,4 21 12 36 19 E 1019,1 42 20 0,0
18.09.2020 08:00:00 14,1 11,8 11,8 16,8 16,4 18 10 33 18 E 1019,0 41 0 0,0
18.09.2020 07:00:00 14,2 11,5 12,2 16,8 16,4 24 13 42 23 ENE 1018,9 46 0 0,0
18.09.2020 06:00:00 14,2 11,4 11,9 16,9 16,4 26 14 40 22 ENE 1019,7 51 0 0,0
18.09.2020 05:00:00 14,1 10,7 11,7 16,9 16,4 21 11 38 21 E 1020,3 54 0 0,0
18.09.2020 04:00:00 14,1 10,5 11,5 17,0 16,4 18 10 34 18 E 1020,8 51 0 0,0
18.09.2020 03:00:00 14,6 10,6 12,2 17,0 16,4 21 12 45 24 E 1021,3 50 0 0,0
18.09.2020 02:00:00 14,9 11,1 12,7 17,1 16,4 24 13 42 23 E 1021,9 50 0 0,0
18.09.2020 01:00:00 14,9 11,9 13,1 17,1 16,4 24 13 44 24 E 1022,3 39 0 0,0
18.09.2020 00:00:00 14,9 12,4 13,3 17,2 16,4 23 13 46 25 E 1022,5 19 0 0,0
17.09.2020 23:00:00 15,1 12,6 13,5 17,2 16,4 29 15 55 30 ENE 1023,2 18 0 0,0
17.09.2020 22:00:00 15,1 12,8 13,4 17,2 16,4 26 14 53 28 ENE 1023,3 18 0 0,0
17.09.2020 21:00:00 15,2 12,7 13,4 17,3 16,4 26 14 44 24 ENE 1022,9 19 0 0,0
17.09.2020 20:00:00 15,5 12,4 14,4 17,3 16,4 28 15 48 26 ENE 1023,0 20 38 0,0
17.09.2020 19:00:00 16,3 12,3 18,4 17,3 16,4 29 16 55 30 ENE 1023,1 20 60 0,0
17.09.2020 18:00:00 17,1 12,2 21,7 17,3 16,4 31 17 59 32 ENE 1023,2 18 60 0,0
17.09.2020 17:00:00 17,8 11,4 23,3 17,2 16,4 31 17 66 36 ENE 1023,6 17 60 0,0
17.09.2020 16:00:00 17,7 11,5 23,9 17,2 16,4 37 20 66 36 E 1023,9 14 60 0,0
17.09.2020 15:00:00 17,7 12,4 24,7 17,2 16,4 37 20 56 30 ENE 1024,5 15 60 0,0
17.09.2020 14:00:00 18,0 12,4 24,2 17,2 16,4 33 18 56 30 E 1024,8 18 60 0,0
17.09.2020 13:00:00 18,0 12,9 23,6 17,1 16,4 36 19 55 30 E 1025,2 16 60 0,0
17.09.2020 12:00:00 17,7 12,6 22,4 17,2 16,4 35 19 59 32 E 1025,6 17 60 0,0
17.09.2020 11:00:00 17,5 12,4 20,6 17,2 16,4 35 19 55 30 E 1026,0 16 60 0,0
17.09.2020 10:00:00 17,2 13,3 16,6 17,2 16,4 32 17 53 29 ENE 1025,8 15 39 0,0

tt = Température de l'air
td = dewpoint
tt 5cm = Température de l'air 5cm
tt -20cm = Température de l'air -20cm
tt -100cm = Température de l'air -100cm
ff = Vitesse du vent
fx = gusts
dd = Direction du vent
ppp = reduced air pressure
vv = visibility
sd = Ensoleillement
rr = Quantités de précipitations

stations d'obs. à proximité